Time,TemperatureF,DewpointF,PressureIn,WindDirection,WindDirectionDegrees,WindSpeedMPH,WindSpeedGustMPH,Humidity,HourlyPrecipIn,Conditions,Clouds,dailyrainin,SoftwareType,DateUTC
2013-03-24 00:00:00,33.1,19.9,29.90,North,4,1.0,1.0,58,0.00,,,0.00,meteohub,2013-03-24 04:00:00,
2013-03-24 00:01:00,32.9,20.1,29.90,West,281,2.0,2.0,59,0.00,,,0.00,meteohub,2013-03-24 04:01:00,
2013-03-24 00:02:00,32.9,20.1,29.90,WSW,256,2.0,2.0,59,0.00,,,0.00,meteohub,2013-03-24 04:02:00,
2013-03-24 00:06:00,33.1,20.7,29.90,WNW,297,0.0,3.0,60,0.00,,,0.00,meteohub,2013-03-24 04:06:00,
2013-03-24 00:12:00,33.3,20.5,29.89,West,281,2.0,5.0,59,0.00,,,0.00,meteohub,2013-03-24 04:12:00,
2013-03-24 00:17:00,33.4,20.3,29.89,WNW,290,0.0,5.0,58,0.00,,,0.00,meteohub,2013-03-24 04:17:00,
2013-03-24 00:22:00,33.3,20.1,29.90,WNW,285,1.0,4.0,58,0.00,,,0.00,meteohub,2013-03-24 04:22:00,
2013-03-24 00:27:00,33.6,20.5,29.90,WNW,292,1.0,5.0,58,0.00,,,0.00,meteohub,2013-03-24 04:27:00,
2013-03-24 00:32:00,33.6,20.5,29.89,WNW,285,1.0,5.0,58,0.00,,,0.00,meteohub,2013-03-24 04:32:00,
2013-03-24 00:37:00,33.4,20.3,29.90,WNW,293,0.0,5.0,58,0.00,,,0.00,meteohub,2013-03-24 04:37:00,
2013-03-24 00:42:00,33.3,20.1,29.89,West,278,1.0,3.0,58,0.00,,,0.00,meteohub,2013-03-24 04:42:00,
2013-03-24 00:47:00,33.1,20.7,29.89,SW,228,1.0,3.0,60,0.00,,,0.00,meteohub,2013-03-24 04:47:00,
2013-03-24 00:52:00,32.9,20.5,29.89,SW,215,1.0,3.0,60,0.00,,,0.00,meteohub,2013-03-24 04:52:00,
2013-03-24 00:57:00,33.1,20.3,29.90,East,82,3.0,3.0,59,0.00,,,0.00,meteohub,2013-03-24 04:57:00,
2013-03-24 01:02:00,33.6,20.5,29.90,ESE,107,2.0,4.0,58,0.00,,,0.00,meteohub,2013-03-24 05:02:00,
2013-03-24 01:07:00,34.2,20.8,29.90,SSW,193,2.0,5.0,58,0.00,,,0.00,meteohub,2013-03-24 05:07:00,
2013-03-24 01:12:00,34.2,20.8,29.89,NW,311,2.0,5.0,58,0.00,,,0.00,meteohub,2013-03-24 05:12:00,
2013-03-24 01:17:00,34.2,20.8,29.88,WNW,290,3.0,5.0,58,0.00,,,0.00,meteohub,2013-03-24 05:17:00,
2013-03-24 01:23:00,34.3,21.0,29.89,SW,228,1.0,6.0,58,0.00,,,0.00,meteohub,2013-03-24 05:23:00,
2013-03-24 01:28:00,34.0,20.8,29.89,ESE,108,2.0,6.0,58,0.00,,,0.00,meteohub,2013-03-24 05:28:00,
2013-03-24 01:33:00,33.6,20.5,29.89,ESE,103,1.0,4.0,58,0.00,,,0.00,meteohub,2013-03-24 05:33:00,
2013-03-24 01:38:00,33.6,20.5,29.89,SE,133,1.0,3.0,58,0.00,,,0.00,meteohub,2013-03-24 05:38:00,
2013-03-24 01:43:00,33.4,20.7,29.89,East,98,1.0,2.0,59,0.00,,,0.00,meteohub,2013-03-24 05:43:00,
2013-03-24 01:49:00,33.4,20.7,29.89,East,98,0.0,2.0,59,0.00,,,0.00,meteohub,2013-03-24 05:49:00,
2013-03-24 01:54:00,33.3,20.8,29.89,NW,323,0.0,2.0,60,0.00,,,0.00,meteohub,2013-03-24 05:54:00,
2013-03-24 01:59:00,32.7,21.2,29.88,NW,323,0.0,2.0,62,0.00,,,0.00,meteohub,2013-03-24 05:59:00,
2013-03-24 02:04:00,32.4,20.8,29.88,West,262,1.0,2.0,62,0.00,,,0.00,meteohub,2013-03-24 06:04:00,
2013-03-24 02:10:00,32.4,20.8,29.88,NNE,29,1.0,2.0,62,0.00,,,0.00,meteohub,2013-03-24 06:10:00,
2013-03-24 02:15:00,32.4,20.8,29.88,ENE,75,0.0,3.0,62,0.00,,,0.00,meteohub,2013-03-24 06:15:00,
2013-03-24 02:20:00,32.4,20.8,29.87,ENE,78,0.0,3.0,62,0.00,,,0.00,meteohub,2013-03-24 06:20:00,
2013-03-24 02:25:00,32.0,20.8,29.87,West,278,0.0,3.0,63,0.00,,,0.00,meteohub,2013-03-24 06:25:00,
2013-03-24 02:30:00,31.8,20.3,29.86,North,8,0.0,4.0,62,0.00,,,0.00,meteohub,2013-03-24 06:30:00,
2013-03-24 02:36:00,31.6,20.5,29.86,North,8,0.0,4.0,63,0.00,,,0.00,meteohub,2013-03-24 06:36:00,
2013-03-24 02:41:00,31.3,20.5,29.86,NNE,13,0.0,1.0,64,0.00,,,0.00,meteohub,2013-03-24 06:41:00,
2013-03-24 02:46:00,30.7,19.9,29.86,East,97,1.0,3.0,64,0.00,,,0.00,meteohub,2013-03-24 06:46:00,
2013-03-24 02:52:00,30.2,20.3,29.87,South,191,0.0,3.0,66,0.00,,,0.00,meteohub,2013-03-24 06:52:00,
2013-03-24 02:57:00,30.0,20.5,29.88,SSW,192,0.0,3.0,67,0.00,,,0.00,meteohub,2013-03-24 06:57:00,
2013-03-24 03:02:00,29.7,20.1,29.88,SSW,192,0.0,2.0,67,0.00,,,0.00,meteohub,2013-03-24 07:02:00,
2013-03-24 03:07:00,29.5,20.3,29.88,South,191,0.0,1.0,68,0.00,,,0.00,meteohub,2013-03-24 07:07:00,
2013-03-24 03:12:00,29.5,19.9,29.88,South,191,0.0,0.0,67,0.00,,,0.00,meteohub,2013-03-24 07:12:00,
2013-03-24 03:17:00,29.1,20.3,29.88,South,191,0.0,0.0,69,0.00,,,0.00,meteohub,2013-03-24 07:17:00,
2013-03-24 03:22:00,28.6,20.1,29.88,South,191,0.0,0.0,70,0.00,,,0.00,meteohub,2013-03-24 07:22:00,
2013-03-24 03:27:00,27.9,19.8,29.88,East,81,0.0,0.0,71,0.00,,,0.00,meteohub,2013-03-24 07:27:00,
2013-03-24 03:32:00,27.7,19.8,29.89,ENE,72,0.0,0.0,72,0.00,,,0.00,meteohub,2013-03-24 07:32:00,
2013-03-24 03:37:00,27.9,20.3,29.88,ENE,72,0.0,0.0,73,0.00,,,0.00,meteohub,2013-03-24 07:37:00,
2013-03-24 03:42:00,27.7,19.8,29.88,ENE,72,0.0,0.0,72,0.00,,,0.00,meteohub,2013-03-24 07:42:00,
2013-03-24 03:48:00,27.1,19.6,29.88,ENE,72,0.0,0.0,73,0.00,,,0.00,meteohub,2013-03-24 07:48:00,
2013-03-24 03:53:00,26.4,19.2,29.88,ENE,72,0.0,0.0,74,0.00,,,0.00,meteohub,2013-03-24 07:53:00,
2013-03-24 03:58:00,26.4,19.2,29.88,ENE,72,0.0,0.0,74,0.00,,,0.00,meteohub,2013-03-24 07:58:00,
2013-03-24 04:03:00,26.1,19.2,29.88,ENE,72,0.0,0.0,75,0.00,,,0.00,meteohub,2013-03-24 08:03:00,
2013-03-24 04:09:00,25.9,19.8,29.89,ENE,72,0.0,0.0,77,0.00,,,0.00,meteohub,2013-03-24 08:09:00,
2013-03-24 04:14:00,25.7,19.2,29.89,ENE,72,0.0,0.0,76,0.00,,,0.00,meteohub,2013-03-24 08:14:00,
2013-03-24 04:19:00,25.2,19.0,29.89,ENE,72,0.0,0.0,77,0.00,,,0.00,meteohub,2013-03-24 08:19:00,
2013-03-24 04:24:00,24.6,18.7,29.89,ENE,72,0.0,0.0,78,0.00,,,0.00,meteohub,2013-03-24 08:24:00,
2013-03-24 04:29:00,24.6,19.0,29.89,ENE,72,0.0,0.0,79,0.00,,,0.00,meteohub,2013-03-24 08:29:00,
2013-03-24 04:34:00,24.6,19.0,29.89,ENE,72,0.0,0.0,79,0.00,,,0.00,meteohub,2013-03-24 08:34:00,
2013-03-24 04:39:00,24.6,19.0,29.89,ENE,72,0.0,0.0,79,0.00,,,0.00,meteohub,2013-03-24 08:39:00,
2013-03-24 04:44:00,24.3,18.7,29.89,ENE,72,0.0,0.0,79,0.00,,,0.00,meteohub,2013-03-24 08:44:00,
2013-03-24 04:49:00,24.3,18.7,29.89,ENE,72,0.0,0.0,79,0.00,,,0.00,meteohub,2013-03-24 08:49:00,
2013-03-24 04:54:00,24.3,19.0,29.89,ENE,72,0.0,0.0,80,0.00,,,0.00,meteohub,2013-03-24 08:54:00,
2013-03-24 05:00:00,24.3,18.7,29.89,ENE,72,0.0,0.0,79,0.00,,,0.00,meteohub,2013-03-24 09:00:00,
2013-03-24 05:05:00,23.9,18.3,29.89,ENE,72,0.0,0.0,79,0.00,,,0.00,meteohub,2013-03-24 09:05:00,
2013-03-24 05:10:00,23.5,18.3,29.89,ENE,72,0.0,0.0,80,0.00,,,0.00,meteohub,2013-03-24 09:10:00,
2013-03-24 05:15:00,23.7,18.7,29.89,ENE,72,0.0,0.0,81,0.00,,,0.00,meteohub,2013-03-24 09:15:00,
2013-03-24 05:20:00,23.5,18.3,29.89,ENE,72,0.0,0.0,80,0.00,,,0.00,meteohub,2013-03-24 09:20:00,
2013-03-24 05:25:00,23.2,18.1,29.90,ENE,72,0.0,0.0,81,0.00,,,0.00,meteohub,2013-03-24 09:25:00,
2013-03-24 05:30:00,23.0,18.3,29.90,ENE,72,0.0,0.0,82,0.00,,,0.00,meteohub,2013-03-24 09:30:00,
2013-03-24 05:36:00,22.8,18.5,29.90,ENE,72,0.0,0.0,83,0.00,,,0.00,meteohub,2013-03-24 09:36:00,
2013-03-24 05:41:00,22.6,18.3,29.90,ENE,72,0.0,0.0,83,0.00,,,0.00,meteohub,2013-03-24 09:41:00,
2013-03-24 05:46:00,22.3,18.0,29.90,ENE,72,0.0,0.0,83,0.00,,,0.00,meteohub,2013-03-24 09:46:00,
2013-03-24 05:51:00,21.9,17.6,29.91,ENE,72,0.0,0.0,83,0.00,,,0.00,meteohub,2013-03-24 09:51:00,
2013-03-24 05:57:00,21.7,18.0,29.91,NE,56,0.0,0.0,85,0.00,,,0.00,meteohub,2013-03-24 09:57:00,
2013-03-24 06:02:00,21.7,18.1,29.92,NE,56,0.0,0.0,86,0.00,,,0.00,meteohub,2013-03-24 10:02:00,
2013-03-24 06:07:00,21.6,17.8,29.91,NE,56,0.0,0.0,85,0.00,,,0.00,meteohub,2013-03-24 10:07:00,
2013-03-24 06:12:00,21.6,18.0,29.91,NE,56,0.0,0.0,86,0.00,,,0.00,meteohub,2013-03-24 10:12:00,
2013-03-24 06:17:00,21.7,18.1,29.91,NE,56,0.0,0.0,86,0.00,,,0.00,meteohub,2013-03-24 10:17:00,
2013-03-24 06:22:00,21.6,18.0,29.91,NE,55,0.0,0.0,86,0.00,,,0.00,meteohub,2013-03-24 10:22:00,
2013-03-24 06:27:00,21.2,17.6,29.91,NE,56,0.0,0.0,86,0.00,,,0.00,meteohub,2013-03-24 10:27:00,
2013-03-24 06:32:00,21.0,17.4,29.91,ENE,58,0.0,0.0,86,0.00,,,0.00,meteohub,2013-03-24 10:32:00,
2013-03-24 06:38:00,21.4,18.1,29.91,ENE,58,0.0,0.0,87,0.00,,,0.00,meteohub,2013-03-24 10:38:00,
2013-03-24 06:43:00,21.4,17.8,29.91,ENE,58,0.0,0.0,86,0.00,,,0.00,meteohub,2013-03-24 10:43:00,
2013-03-24 06:48:00,21.0,17.4,29.91,ENE,58,0.0,0.0,86,0.00,,,0.00,meteohub,2013-03-24 10:48:00,
2013-03-24 06:53:00,21.4,18.1,29.91,ENE,58,0.0,0.0,87,0.00,,,0.00,meteohub,2013-03-24 10:53:00,
2013-03-24 06:58:00,21.2,18.0,29.91,ENE,58,0.0,0.0,87,0.00,,,0.00,meteohub,2013-03-24 10:58:00,
2013-03-24 07:04:00,21.4,18.1,29.91,ENE,58,0.0,0.0,87,0.00,,,0.00,meteohub,2013-03-24 11:04:00,
2013-03-24 07:09:00,21.4,18.1,29.91,ENE,58,0.0,0.0,87,0.00,,,0.00,meteohub,2013-03-24 11:09:00,
2013-03-24 07:14:00,21.4,18.1,29.90,ENE,58,0.0,0.0,87,0.00,,,0.00,meteohub,2013-03-24 11:14:00,
2013-03-24 07:19:00,21.6,18.3,29.91,ENE,58,0.0,0.0,87,0.00,,,0.00,meteohub,2013-03-24 11:19:00,
2013-03-24 07:24:00,21.7,18.7,29.91,ENE,58,0.0,0.0,88,0.00,,,0.00,meteohub,2013-03-24 11:24:00,
2013-03-24 07:29:00,21.7,18.7,29.91,ENE,58,0.0,0.0,88,0.00,,,0.00,meteohub,2013-03-24 11:29:00,
2013-03-24 07:34:00,22.5,19.8,29.91,ENE,58,0.0,0.0,89,0.00,,,0.00,meteohub,2013-03-24 11:34:00,
2013-03-24 07:40:00,23.7,20.7,29.91,ENE,58,0.0,0.0,88,0.00,,,0.00,meteohub,2013-03-24 11:40:00,
2013-03-24 07:45:00,25.2,21.6,29.91,ENE,58,0.0,0.0,86,0.00,,,0.00,meteohub,2013-03-24 11:45:00,
2013-03-24 07:50:00,26.6,23.0,29.91,ENE,58,0.0,0.0,86,0.00,,,0.00,meteohub,2013-03-24 11:50:00,
2013-03-24 07:55:00,27.9,23.4,29.91,ENE,58,0.0,0.0,83,0.00,,,0.00,meteohub,2013-03-24 11:55:00,
2013-03-24 08:00:00,29.1,24.1,29.91,ENE,58,0.0,0.0,81,0.00,,,0.00,meteohub,2013-03-24 12:00:00,
2013-03-24 08:05:00,30.0,24.1,29.92,ENE,58,0.0,0.0,78,0.00,,,0.00,meteohub,2013-03-24 12:05:00,
2013-03-24 08:10:00,30.6,24.4,29.92,ENE,58,0.0,0.0,78,0.00,,,0.00,meteohub,2013-03-24 12:10:00,
2013-03-24 08:16:00,30.9,23.9,29.92,NNW,336,0.0,2.0,75,0.00,,,0.00,meteohub,2013-03-24 12:16:00,
2013-03-24 08:21:00,30.6,23.9,29.92,NNW,330,0.0,2.0,76,0.00,,,0.00,meteohub,2013-03-24 12:21:00,
2013-03-24 08:27:00,31.8,25.5,29.91,NNW,330,0.0,2.0,77,0.00,,,0.00,meteohub,2013-03-24 12:27:00,
2013-03-24 08:32:00,32.7,25.7,29.91,NNW,330,0.0,1.0,75,0.00,,,0.00,meteohub,2013-03-24 12:32:00,
2013-03-24 08:37:00,33.8,26.8,29.91,NNW,330,0.0,0.0,75,0.00,,,0.00,meteohub,2013-03-24 12:37:00,
2013-03-24 08:42:00,34.9,26.1,29.91,NNW,330,0.0,0.0,70,0.00,,,0.00,meteohub,2013-03-24 12:42:00,
2013-03-24 08:47:00,35.2,25.0,29.91,NW,305,0.0,0.0,66,0.00,,,0.00,meteohub,2013-03-24 12:47:00,
2013-03-24 08:52:00,36.3,26.1,29.91,NW,305,0.0,0.0,66,0.00,,,0.00,meteohub,2013-03-24 12:52:00,
2013-03-24 08:58:00,37.0,25.2,29.91,SSE,162,0.0,2.0,62,0.00,,,0.00,meteohub,2013-03-24 12:58:00,
2013-03-24 09:03:00,37.9,25.3,29.91,NW,304,2.0,3.0,60,0.00,,,0.00,meteohub,2013-03-24 13:03:00,
2013-03-24 09:08:00,37.9,22.8,29.91,West,275,2.0,3.0,54,0.00,,,0.00,meteohub,2013-03-24 13:08:00,
2013-03-24 09:13:00,38.1,23.4,29.90,WNW,293,1.0,8.0,55,0.00,,,0.00,meteohub,2013-03-24 13:13:00,
2013-03-24 09:18:00,38.1,22.5,29.90,NW,316,2.0,9.0,53,0.00,,,0.00,meteohub,2013-03-24 13:18:00,
2013-03-24 09:24:00,38.7,22.1,29.90,WNW,293,2.0,9.0,51,0.00,,,0.00,meteohub,2013-03-24 13:24:00,
2013-03-24 09:29:00,39.0,21.9,29.90,WNW,288,1.0,9.0,50,0.00,,,0.00,meteohub,2013-03-24 13:29:00,
2013-03-24 09:34:00,39.2,22.6,29.90,WSW,242,3.0,7.0,51,0.00,,,0.00,meteohub,2013-03-24 13:34:00,
2013-03-24 09:39:00,39.4,20.8,29.90,WNW,298,2.0,7.0,47,0.00,,,0.00,meteohub,2013-03-24 13:39:00,
2013-03-24 09:44:00,39.6,21.6,29.90,ENE,72,3.0,7.0,48,0.00,,,0.00,meteohub,2013-03-24 13:44:00,
2013-03-24 09:49:00,39.6,21.6,29.89,NW,307,2.0,7.0,48,0.00,,,0.00,meteohub,2013-03-24 13:49:00,
2013-03-24 09:54:00,39.9,21.4,29.89,North,351,3.0,10.0,47,0.00,,,0.00,meteohub,2013-03-24 13:54:00,
2013-03-24 10:00:00,40.5,22.3,29.89,West,268,6.0,10.0,48,0.00,,,0.00,meteohub,2013-03-24 14:00:00,
2013-03-24 10:05:00,40.1,21.6,29.88,SE,146,1.0,10.0,47,0.00,,,0.00,meteohub,2013-03-24 14:05:00,
2013-03-24 10:10:00,40.5,21.4,29.89,NW,307,1.0,10.0,46,0.00,,,0.00,meteohub,2013-03-24 14:10:00,
2013-03-24 10:15:00,40.6,21.6,29.88,WNW,299,1.0,10.0,46,0.00,,,0.00,meteohub,2013-03-24 14:15:00,
2013-03-24 10:20:00,40.5,21.4,29.88,NW,311,3.0,9.0,46,0.00,,,0.00,meteohub,2013-03-24 14:20:00,
2013-03-24 10:25:00,40.5,21.4,29.88,NW,311,2.0,7.0,46,0.00,,,0.00,meteohub,2013-03-24 14:25:00,
2013-03-24 10:30:00,40.6,21.6,29.87,NW,321,2.0,9.0,46,0.00,,,0.00,meteohub,2013-03-24 14:30:00,
2013-03-24 10:35:00,40.6,21.0,29.87,WNW,295,3.0,9.0,45,0.00,,,0.00,meteohub,2013-03-24 14:35:00,
2013-03-24 10:41:00,40.8,21.6,29.86,NNW,340,1.0,8.0,46,0.00,,,0.00,meteohub,2013-03-24 14:41:00,
2013-03-24 10:46:00,41.5,22.3,29.86,East,97,2.0,8.0,46,0.00,,,0.00,meteohub,2013-03-24 14:46:00,
2013-03-24 10:52:00,41.9,23.2,29.86,SSW,212,5.0,7.0,47,0.00,,,0.00,meteohub,2013-03-24 14:52:00,
2013-03-24 10:57:00,42.3,21.4,29.86,ENE,59,2.0,6.0,43,0.00,,,0.00,meteohub,2013-03-24 14:57:00,
2013-03-24 11:02:00,41.9,21.6,29.85,NW,305,1.0,7.0,44,0.00,,,0.00,meteohub,2013-03-24 15:02:00,
2013-03-24 11:07:00,42.3,21.9,29.85,NNE,25,1.0,10.0,44,0.00,,,0.00,meteohub,2013-03-24 15:07:00,
2013-03-24 11:12:00,42.3,23.0,29.84,SW,232,3.0,10.0,46,0.00,,,0.00,meteohub,2013-03-24 15:12:00,
2013-03-24 11:17:00,42.1,22.3,29.84,WNW,299,2.0,10.0,45,0.00,,,0.00,meteohub,2013-03-24 15:17:00,
2013-03-24 11:22:00,42.3,21.9,29.83,NNE,13,5.0,8.0,44,0.00,,,0.00,meteohub,2013-03-24 15:22:00,
2013-03-24 11:27:00,42.3,21.9,29.83,West,270,2.0,8.0,44,0.00,,,0.00,meteohub,2013-03-24 15:27:00,
2013-03-24 11:32:00,42.6,22.3,29.82,West,281,2.0,8.0,44,0.00,,,0.00,meteohub,2013-03-24 15:32:00,
2013-03-24 11:37:00,43.3,22.8,29.82,West,259,3.0,8.0,44,0.00,,,0.00,meteohub,2013-03-24 15:37:00,
2013-03-24 11:43:00,43.0,22.6,29.81,SSE,167,1.0,9.0,44,0.00,,,0.00,meteohub,2013-03-24 15:43:00,
2013-03-24 11:48:00,43.5,23.5,29.80,WNW,284,5.0,9.0,45,0.00,,,0.00,meteohub,2013-03-24 15:48:00,
2013-03-24 11:53:00,44.1,23.0,29.80,West,259,1.0,9.0,43,0.00,,,0.00,meteohub,2013-03-24 15:53:00,
2013-03-24 11:58:00,43.7,22.6,29.79,SW,229,5.0,7.0,43,0.00,,,0.00,meteohub,2013-03-24 15:58:00,
2013-03-24 12:04:00,43.5,22.5,29.79,NNW,328,2.0,11.0,43,0.00,,,0.00,meteohub,2013-03-24 16:04:00,
2013-03-24 12:09:00,43.9,22.3,29.78,WNW,284,6.0,11.0,42,0.00,,,0.00,meteohub,2013-03-24 16:09:00,
2013-03-24 12:14:00,43.5,21.9,29.78,ENE,73,2.0,7.0,42,0.00,,,0.00,meteohub,2013-03-24 16:14:00,
2013-03-24 12:19:00,43.9,22.3,29.78,NW,307,3.0,9.0,42,0.00,,,0.00,meteohub,2013-03-24 16:19:00,
2013-03-24 12:25:00,44.2,22.1,29.79,NNW,330,5.0,9.0,41,0.00,,,0.00,meteohub,2013-03-24 16:25:00,
2013-03-24 12:30:00,44.8,23.0,29.79,ENE,64,4.0,8.0,42,0.00,,,0.00,meteohub,2013-03-24 16:30:00,
2013-03-24 12:35:00,45.1,22.8,29.79,West,275,1.0,8.0,41,0.00,,,0.00,meteohub,2013-03-24 16:35:00,
2013-03-24 12:40:00,45.1,22.3,29.79,NE,43,3.0,8.0,40,0.00,,,0.00,meteohub,2013-03-24 16:40:00,
2013-03-24 12:45:00,45.1,23.4,29.79,WNW,291,2.0,10.0,42,0.00,,,0.00,meteohub,2013-03-24 16:45:00,
2013-03-24 12:51:00,45.3,21.7,29.79,WNW,290,1.0,10.0,39,0.00,,,0.00,meteohub,2013-03-24 16:51:00,
2013-03-24 12:56:00,45.3,22.5,29.80,WSW,243,3.0,7.0,40,0.00,,,0.00,meteohub,2013-03-24 16:56:00,
2013-03-24 13:01:00,45.0,20.8,29.79,WSW,244,0.0,7.0,38,0.00,,,0.00,meteohub,2013-03-24 17:01:00,
2013-03-24 13:07:00,45.1,21.7,29.79,West,262,3.0,5.0,39,0.00,,,0.00,meteohub,2013-03-24 17:07:00,
2013-03-24 13:12:00,45.5,22.6,29.79,West,277,2.0,6.0,40,0.00,,,0.00,meteohub,2013-03-24 17:12:00,
2013-03-24 13:17:00,45.0,20.8,29.79,WNW,285,4.0,7.0,38,0.00,,,0.00,meteohub,2013-03-24 17:17:00,
2013-03-24 13:22:00,45.1,22.3,29.78,WSW,248,1.0,7.0,40,0.00,,,0.00,meteohub,2013-03-24 17:22:00,
2013-03-24 13:27:00,45.9,21.7,29.77,WSW,245,2.0,7.0,38,0.00,,,0.00,meteohub,2013-03-24 17:27:00,
2013-03-24 13:32:00,45.9,22.8,29.76,NW,307,0.0,6.0,40,0.00,,,0.00,meteohub,2013-03-24 17:32:00,
2013-03-24 13:38:00,46.6,22.3,29.75,NW,314,2.0,6.0,38,0.00,,,0.00,meteohub,2013-03-24 17:38:00,
2013-03-24 13:43:00,45.9,21.7,29.75,West,263,4.0,6.0,38,0.00,,,0.00,meteohub,2013-03-24 17:43:00,
2013-03-24 13:48:00,45.9,22.3,29.74,West,281,3.0,7.0,39,0.00,,,0.00,meteohub,2013-03-24 17:48:00,
2013-03-24 13:53:00,45.5,21.4,29.74,West,262,1.0,7.0,38,0.00,,,0.00,meteohub,2013-03-24 17:53:00,
2013-03-24 13:59:00,45.7,21.6,29.73,West,281,0.0,7.0,38,0.00,,,0.00,meteohub,2013-03-24 17:59:00,
2013-03-24 14:04:00,46.2,21.9,29.72,ENE,58,7.0,12.0,38,0.00,,,0.00,meteohub,2013-03-24 18:04:00,
2013-03-24 14:09:00,45.9,21.7,29.72,SE,127,1.0,12.0,38,0.00,,,0.00,meteohub,2013-03-24 18:09:00,
2013-03-24 14:14:00,45.7,21.6,29.72,NNE,29,0.0,12.0,38,0.00,,,0.00,meteohub,2013-03-24 18:14:00,
2013-03-24 14:20:00,45.9,21.0,29.71,SSW,204,0.0,7.0,37,0.00,,,0.00,meteohub,2013-03-24 18:20:00,
2013-03-24 14:25:00,46.2,21.4,29.71,ENE,66,2.0,5.0,37,0.00,,,0.00,meteohub,2013-03-24 18:25:00,
2013-03-24 14:30:00,46.8,23.2,29.70,NNW,345,1.0,6.0,39,0.00,,,0.00,meteohub,2013-03-24 18:30:00,
2013-03-24 14:35:00,46.9,22.6,29.70,NE,52,5.0,6.0,38,0.00,,,0.00,meteohub,2013-03-24 18:35:00,
2013-03-24 14:41:00,46.8,22.5,29.69,ENE,71,1.0,8.0,38,0.00,,,0.00,meteohub,2013-03-24 18:41:00,
2013-03-24 14:46:00,46.9,22.6,29.68,WSW,255,2.0,8.0,38,0.00,,,0.00,meteohub,2013-03-24 18:46:00,
2013-03-24 14:52:00,47.5,22.5,29.69,NE,37,2.0,8.0,37,0.00,,,0.00,meteohub,2013-03-24 18:52:00,
2013-03-24 14:57:00,47.7,22.6,29.68,West,276,2.0,8.0,37,0.00,,,0.00,meteohub,2013-03-24 18:57:00,
2013-03-24 15:02:00,47.3,21.7,29.68,SW,236,2.0,8.0,36,0.00,,,0.00,meteohub,2013-03-24 19:02:00,
2013-03-24 15:07:00,47.5,22.5,29.68,ESE,105,3.0,8.0,37,0.00,,,0.00,meteohub,2013-03-24 19:07:00,
2013-03-24 15:12:00,47.1,21.6,29.68,NNE,20,4.0,8.0,36,0.00,,,0.00,meteohub,2013-03-24 19:12:00,
2013-03-24 15:17:00,46.8,21.9,29.68,East,97,3.0,9.0,37,0.00,,,0.00,meteohub,2013-03-24 19:17:00,
2013-03-24 15:22:00,46.8,20.5,29.67,ENE,67,3.0,9.0,35,0.00,,,0.00,meteohub,2013-03-24 19:22:00,
2013-03-24 15:27:00,46.9,21.4,29.67,NNE,20,2.0,8.0,36,0.00,,,0.00,meteohub,2013-03-24 19:27:00,
2013-03-24 15:32:00,46.8,21.2,29.67,ENE,71,2.0,5.0,36,0.00,,,0.00,meteohub,2013-03-24 19:32:00,
2013-03-24 15:38:00,47.1,20.8,29.67,West,275,0.0,6.0,35,0.00,,,0.00,meteohub,2013-03-24 19:38:00,
2013-03-24 15:43:00,47.1,22.1,29.67,SSE,163,1.0,6.0,37,0.00,,,0.00,meteohub,2013-03-24 19:43:00,
2013-03-24 15:48:00,47.1,21.6,29.66,WSW,246,1.0,4.0,36,0.00,,,0.00,meteohub,2013-03-24 19:48:00,
2013-03-24 15:53:00,46.8,20.5,29.66,NW,307,1.0,4.0,35,0.00,,,0.00,meteohub,2013-03-24 19:53:00,
2013-03-24 15:59:00,46.8,21.9,29.66,NE,47,5.0,5.0,37,0.00,,,0.00,meteohub,2013-03-24 19:59:00,
2013-03-24 16:04:00,46.2,21.4,29.66,ESE,110,2.0,6.0,37,0.00,,,0.00,meteohub,2013-03-24 20:04:00,
2013-03-24 16:09:00,45.9,21.0,29.65,East,82,4.0,7.0,37,0.00,,,0.00,meteohub,2013-03-24 20:09:00,
2013-03-24 16:14:00,45.9,22.3,29.65,ENE,65,1.0,7.0,39,0.00,,,0.00,meteohub,2013-03-24 20:14:00,
2013-03-24 16:19:00,45.9,21.7,29.65,NE,45,0.0,7.0,38,0.00,,,0.00,meteohub,2013-03-24 20:19:00,
2013-03-24 16:24:00,46.0,23.0,29.65,NE,47,1.0,7.0,40,0.00,,,0.00,meteohub,2013-03-24 20:24:00,
2013-03-24 16:30:00,46.2,22.6,29.65,ENE,63,3.0,5.0,39,0.00,,,0.00,meteohub,2013-03-24 20:30:00,
2013-03-24 16:35:00,46.0,21.9,29.65,NE,35,4.0,4.0,38,0.00,,,0.00,meteohub,2013-03-24 20:35:00,
2013-03-24 16:40:00,45.9,21.0,29.65,NNE,20,4.0,6.0,37,0.00,,,0.00,meteohub,2013-03-24 20:40:00,
2013-03-24 16:45:00,45.7,21.6,29.64,NE,49,3.0,7.0,38,0.00,,,0.00,meteohub,2013-03-24 20:45:00,
2013-03-24 16:50:00,45.7,22.1,29.65,East,80,5.0,7.0,39,0.00,,,0.00,meteohub,2013-03-24 20:50:00,
2013-03-24 16:55:00,45.7,22.1,29.65,ENE,64,1.0,6.0,39,0.00,,,0.00,meteohub,2013-03-24 20:55:00,
2013-03-24 17:00:00,45.7,21.6,29.65,ENE,58,1.0,6.0,38,0.00,,,0.00,meteohub,2013-03-24 21:00:00,
2013-03-24 17:06:00,45.7,22.8,29.65,ENE,73,6.0,6.0,40,0.00,,,0.00,meteohub,2013-03-24 21:06:00,
2013-03-24 17:11:00,45.9,22.8,29.65,NNE,30,1.0,6.0,40,0.00,,,0.00,meteohub,2013-03-24 21:11:00,
2013-03-24 17:17:00,45.7,22.8,29.65,ENE,62,1.0,6.0,40,0.00,,,0.00,meteohub,2013-03-24 21:17:00,
2013-03-24 17:22:00,45.3,22.5,29.65,NE,54,1.0,6.0,40,0.00,,,0.00,meteohub,2013-03-24 21:22:00,
2013-03-24 17:27:00,45.3,22.5,29.65,ENE,63,1.0,5.0,40,0.00,,,0.00,meteohub,2013-03-24 21:27:00,
2013-03-24 17:32:00,45.1,22.3,29.65,NE,35,2.0,4.0,40,0.00,,,0.00,meteohub,2013-03-24 21:32:00,
2013-03-24 17:37:00,45.1,22.3,29.65,ENE,72,3.0,4.0,40,0.00,,,0.00,meteohub,2013-03-24 21:37:00,
2013-03-24 17:42:00,45.0,22.1,29.65,NNE,22,3.0,4.0,40,0.00,,,0.00,meteohub,2013-03-24 21:42:00,
2013-03-24 17:47:00,44.8,22.5,29.65,NE,52,0.0,4.0,41,0.00,,,0.00,meteohub,2013-03-24 21:47:00,
2013-03-24 17:52:00,44.8,22.5,29.65,ENE,64,1.0,4.0,41,0.00,,,0.00,meteohub,2013-03-24 21:52:00,
2013-03-24 17:57:00,44.6,22.3,29.65,ENE,64,0.0,3.0,41,0.00,,,0.00,meteohub,2013-03-24 21:57:00,
2013-03-24 18:02:00,44.4,22.1,29.65,ENE,63,2.0,2.0,41,0.00,,,0.00,meteohub,2013-03-24 22:02:00,
2013-03-24 18:07:00,44.4,22.8,29.65,NE,52,1.0,3.0,42,0.00,,,0.00,meteohub,2013-03-24 22:07:00,
2013-03-24 18:12:00,44.2,22.6,29.65,ENE,71,2.0,3.0,42,0.00,,,0.00,meteohub,2013-03-24 22:12:00,
2013-03-24 18:18:00,44.1,23.0,29.65,NE,45,1.0,3.0,43,0.00,,,0.00,meteohub,2013-03-24 22:18:00,
2013-03-24 18:23:00,44.1,23.5,29.64,NE,45,0.0,3.0,44,0.00,,,0.00,meteohub,2013-03-24 22:23:00,
2013-03-24 18:28:00,43.9,23.4,29.64,NE,46,1.0,2.0,44,0.00,,,0.00,meteohub,2013-03-24 22:28:00,
2013-03-24 18:33:00,43.7,23.7,29.63,NE,47,1.0,4.0,45,0.00,,,0.00,meteohub,2013-03-24 22:33:00,
2013-03-24 18:38:00,43.5,24.1,29.64,ENE,57,2.0,4.0,46,0.00,,,0.00,meteohub,2013-03-24 22:38:00,
2013-03-24 18:43:00,43.3,23.9,29.64,ENE,60,1.0,4.0,46,0.00,,,0.00,meteohub,2013-03-24 22:43:00,
2013-03-24 18:49:00,43.3,23.9,29.65,ENE,61,2.0,4.0,46,0.00,,,0.00,meteohub,2013-03-24 22:49:00,
2013-03-24 18:54:00,43.2,23.7,29.65,ENE,65,1.0,4.0,46,0.00,,,0.00,meteohub,2013-03-24 22:54:00,
2013-03-24 18:59:00,43.0,23.5,29.65,NE,41,1.0,2.0,46,0.00,,,0.00,meteohub,2013-03-24 22:59:00,
2013-03-24 19:04:00,43.0,23.5,29.65,NE,48,1.0,4.0,46,0.00,,,0.00,meteohub,2013-03-24 23:04:00,
2013-03-24 19:10:00,42.6,23.4,29.65,NE,49,1.0,4.0,46,0.00,,,0.00,meteohub,2013-03-24 23:10:00,
2013-03-24 19:15:00,42.6,23.7,29.66,NE,49,1.0,4.0,47,0.00,,,0.00,meteohub,2013-03-24 23:15:00,
2013-03-24 19:20:00,42.4,24.1,29.66,NE,48,0.0,2.0,48,0.00,,,0.00,meteohub,2013-03-24 23:20:00,
2013-03-24 19:25:00,41.9,24.6,29.67,NE,48,0.0,1.0,50,0.00,,,0.00,meteohub,2013-03-24 23:25:00,
2013-03-24 19:31:00,41.5,24.3,29.66,NE,48,0.0,1.0,50,0.00,,,0.00,meteohub,2013-03-24 23:31:00,
2013-03-24 19:36:00,41.5,25.2,29.67,NE,49,0.0,1.0,52,0.00,,,0.00,meteohub,2013-03-24 23:36:00,
2013-03-24 19:41:00,40.8,25.5,29.67,NE,48,1.0,1.0,54,0.00,,,0.00,meteohub,2013-03-24 23:41:00,
2013-03-24 19:46:00,40.5,25.2,29.67,NE,49,0.0,1.0,54,0.00,,,0.00,meteohub,2013-03-24 23:46:00,
2013-03-24 19:52:00,40.3,25.3,29.67,NE,48,0.0,1.0,55,0.00,,,0.00,meteohub,2013-03-24 23:52:00,
2013-03-24 19:57:00,39.7,25.3,29.67,NE,48,0.0,1.0,56,0.00,,,0.00,meteohub,2013-03-24 23:57:00,
2013-03-24 20:02:00,39.4,25.3,29.67,NE,49,0.0,0.0,57,0.00,,,0.00,meteohub,2013-03-25 00:02:00,
2013-03-24 20:07:00,38.8,25.7,29.67,NE,48,0.0,0.0,59,0.00,,,0.00,meteohub,2013-03-25 00:07:00,
2013-03-24 20:12:00,38.7,25.5,29.67,NE,48,0.0,0.0,59,0.00,,,0.00,meteohub,2013-03-25 00:12:00,
2013-03-24 20:17:00,38.7,25.5,29.67,NE,48,0.0,0.0,59,0.00,,,0.00,meteohub,2013-03-25 00:17:00,
2013-03-24 20:22:00,38.5,26.2,29.67,NE,49,0.0,0.0,61,0.00,,,0.00,meteohub,2013-03-25 00:22:00,
2013-03-24 20:27:00,38.7,26.1,29.67,NE,48,0.0,0.0,60,0.00,,,0.00,meteohub,2013-03-25 00:27:00,
2013-03-24 20:32:00,38.5,25.9,29.67,ENE,71,0.0,2.0,60,0.00,,,0.00,meteohub,2013-03-25 00:32:00,
2013-03-24 20:37:00,38.1,26.2,29.67,ENE,71,0.0,2.0,62,0.00,,,0.00,meteohub,2013-03-25 00:37:00,
2013-03-24 20:42:00,37.9,26.1,29.67,ENE,70,1.0,2.0,62,0.00,,,0.00,meteohub,2013-03-25 00:42:00,
2013-03-24 20:47:00,37.9,26.4,29.67,ENE,70,1.0,1.0,63,0.00,,,0.00,meteohub,2013-03-25 00:47:00,
2013-03-24 20:52:00,37.9,26.4,29.67,ENE,71,1.0,2.0,63,0.00,,,0.00,meteohub,2013-03-25 00:52:00,
2013-03-24 20:57:00,37.8,25.9,29.68,ENE,71,0.0,2.0,62,0.00,,,0.00,meteohub,2013-03-25 00:57:00,
2013-03-24 21:02:00,37.8,25.9,29.68,ENE,71,0.0,2.0,62,0.00,,,0.00,meteohub,2013-03-25 01:02:00,
2013-03-24 21:07:00,37.4,25.9,29.68,ENE,70,0.0,1.0,63,0.00,,,0.00,meteohub,2013-03-25 01:07:00,
2013-03-24 21:12:00,37.2,25.7,29.68,ENE,71,0.0,1.0,63,0.00,,,0.00,meteohub,2013-03-25 01:12:00,
2013-03-24 21:18:00,37.0,25.7,29.68,ENE,71,0.0,1.0,63,0.00,,,0.00,meteohub,2013-03-25 01:18:00,
2013-03-24 21:23:00,36.9,26.2,29.68,ENE,71,1.0,1.0,65,0.00,,,0.00,meteohub,2013-03-25 01:23:00,
2013-03-24 21:28:00,36.7,26.8,29.68,ENE,75,1.0,2.0,67,0.00,,,0.00,meteohub,2013-03-25 01:28:00,
2013-03-24 21:33:00,37.6,27.3,29.69,ESE,107,0.0,5.0,66,0.00,,,0.00,meteohub,2013-03-25 01:33:00,
2013-03-24 21:38:00,37.8,26.6,29.69,SE,138,1.0,5.0,64,0.00,,,0.00,meteohub,2013-03-25 01:38:00,
2013-03-24 21:43:00,38.5,27.0,29.69,SSE,153,0.0,5.0,63,0.00,,,0.00,meteohub,2013-03-25 01:43:00,
2013-03-24 21:48:00,38.8,27.0,29.69,East,100,3.0,6.0,62,0.00,,,0.00,meteohub,2013-03-25 01:48:00,
2013-03-24 21:53:00,39.0,27.1,29.69,SE,131,3.0,6.0,62,0.00,,,0.00,meteohub,2013-03-25 01:53:00,
2013-03-24 21:59:00,39.0,27.1,29.69,ESE,113,3.0,6.0,62,0.00,,,0.00,meteohub,2013-03-25 01:59:00,
2013-03-24 22:04:00,39.0,27.1,29.69,ENE,71,2.0,6.0,62,0.00,,,0.00,meteohub,2013-03-25 02:04:00,
2013-03-24 22:09:00,39.0,27.1,29.68,ESE,122,2.0,6.0,62,0.00,,,0.00,meteohub,2013-03-25 02:09:00,
2013-03-24 22:14:00,39.0,27.1,29.68,South,173,3.0,6.0,62,0.00,,,0.00,meteohub,2013-03-25 02:14:00,
2013-03-24 22:20:00,38.8,27.0,29.68,ENE,77,1.0,5.0,62,0.00,,,0.00,meteohub,2013-03-25 02:20:00,
2013-03-24 22:25:00,38.7,26.8,29.68,East,93,1.0,5.0,62,0.00,,,0.00,meteohub,2013-03-25 02:25:00,
2013-03-24 22:30:00,38.7,26.8,29.67,East,96,1.0,4.0,62,0.00,,,0.00,meteohub,2013-03-25 02:30:00,
2013-03-24 22:35:00,38.5,27.0,29.67,ENE,58,1.0,3.0,63,0.00,,,0.00,meteohub,2013-03-25 02:35:00,
2013-03-24 22:40:00,38.3,26.8,29.67,ENE,77,0.0,3.0,63,0.00,,,0.00,meteohub,2013-03-25 02:40:00,
2013-03-24 22:45:00,38.1,26.6,29.67,ENE,78,1.0,3.0,63,0.00,,,0.00,meteohub,2013-03-25 02:45:00,
2013-03-24 22:50:00,38.1,26.6,29.66,East,93,1.0,3.0,63,0.00,,,0.00,meteohub,2013-03-25 02:50:00,
2013-03-24 22:56:00,37.9,26.4,29.66,ESE,113,2.0,2.0,63,0.00,,,0.00,meteohub,2013-03-25 02:56:00,
2013-03-24 23:01:00,37.9,26.4,29.66,ENE,71,1.0,5.0,63,0.00,,,0.00,meteohub,2013-03-25 03:01:00,
2013-03-24 23:06:00,37.9,26.4,29.65,ENE,75,0.0,5.0,63,0.00,,,0.00,meteohub,2013-03-25 03:06:00,
2013-03-24 23:12:00,37.8,26.6,29.65,East,81,0.0,5.0,64,0.00,,,0.00,meteohub,2013-03-25 03:12:00,
2013-03-24 23:17:00,37.6,26.6,29.65,East,98,2.0,3.0,64,0.00,,,0.00,meteohub,2013-03-25 03:17:00,
2013-03-24 23:22:00,37.6,26.6,29.65,East,96,0.0,2.0,64,0.00,,,0.00,meteohub,2013-03-25 03:22:00,
2013-03-24 23:27:00,37.6,26.6,29.65,ENE,78,1.0,3.0,64,0.00,,,0.00,meteohub,2013-03-25 03:27:00,
2013-03-24 23:32:00,37.6,26.6,29.64,East,98,0.0,3.0,64,0.00,,,0.00,meteohub,2013-03-25 03:32:00,
2013-03-24 23:37:00,37.4,26.4,29.64,NE,49,0.0,3.0,64,0.00,,,0.00,meteohub,2013-03-25 03:37:00,
2013-03-24 23:43:00,37.2,26.2,29.64,NE,49,0.0,3.0,64,0.00,,,0.00,meteohub,2013-03-25 03:43:00,
2013-03-24 23:48:00,37.0,26.4,29.64,NE,49,0.0,2.0,65,0.00,,,0.00,meteohub,2013-03-25 03:48:00,
2013-03-24 23:53:00,36.7,26.4,29.64,NE,49,0.0,2.0,66,0.00,,,0.00,meteohub,2013-03-25 03:53:00,
2013-03-24 23:58:00,36.5,26.6,29.64,NE,50,0.0,1.0,67,0.00,,,0.00,meteohub,2013-03-25 03:58:00,